Location: Sweet Grass
(48.9965°N, 111.9649°W)
Time: 13:36:14
(UTC+00:00)

Envisat - Pass Details

Date: 04 December 2022
Orbit: 763 x 765 km, 98.2° (Epoch: 06 February)

Event Time Altitude Azimuth Distance (km) Brightness Sun altitude
Rises 23:59:07 0° 207° (SSW) 3,219 7.3 -4.6°
Reaches altitude 10° 00:02:03 10° 225° (SW) 2,299 7.0 -5.0°
Maximum altitude 00:05:38 19° 270° (W) 1,751 5.9 -5.6°
Drops below altitude 10° 00:09:16 10° 316° (NW) 2,313 5.7 -6.1°
Sets 00:12:14 0° 334° (NNW) 3,245 6.3 -6.5°
